www.pogodaiklimat.ru
ПОГОДА в Дрожжаном

Архив погоды в Дрожжаном (Татарстан, Россия)

Время
(UTC), дата
15 23.11
18 23.11
21 23.11
00 24.11
03 24.11
06 24.11
09 24.11
12 24.11
15 24.11
18 24.11
21 24.11
00 25.11
03 25.11
06 25.11
09 25.11
12 25.11
15 25.11
18 25.11
21 25.11
00 26.11
03 26.11
06 26.11
09 26.11
12 26.11
18 26.11
21 26.11
00 27.11
03 27.11
06 27.11
09 27.11
12 27.11
15 27.11
18 27.11
21 27.11
03 28.11
09 28.11
12 28.11
15 28.11
18 28.11
21 28.11
00 29.11
03 29.11
06 29.11
09 29.11
12 29.11
Ветер
(напр.,м/с)
Видим. Явления Облачность Т
(С)
Тd
(С)
f
(%)
Тe
(С)
Тes
(С)
Комфортность P
(гПа)
Po
(гПа)
Тmin
(С)
Tmax
(С)
R
(мм)
R24
(мм)
S
(см)
В 2 200 м туман, небо не видно [диам. гололёда 11 мм] ?/? -0.3 -0.9 96 -4 -4 1006.7 978.1 -0.2 6
В 1 200 м туман, небо не видно [диам. гололёда 11 мм] ?/? -0.2 -0.8 96 -2 -2 1006.5 977.9
штиль 0 4000 м дымка {туман} [диам. гололёда 11 мм] 10/10 600 м
[Sc]
-0.2 -0.7 96 -2 -2 1006.8 978.2
В 1 4000 м дымка {туман} [диам. гололёда 11 мм] 10/10 600 м
[Sc]
-0.4 -0.9 96 -3 -3 1008.3 979.7
ЮВ 2 500 м туман, небо не видно {снег} [диам. гололёда 11 мм] ?/? -0.9 -1.4 96 -5 -5 1009.8 981.1 -0.9 1 11
В 2 500 м туман, небо не видно {снег} [диам. гололёда 11 мм] ?/? -2.0 -2.6 96 -6 -6 1012.4 983.5 -2.0
В 2 500 м туман, небо не видно [диам. гололёда 11 мм] ?/? -2.9 -3.7 94 -7 -7 1014.6 985.5
В 2 4000 м дымка {туман} [диам. гололёда 11 мм] 10/10 600 м
[Sc]
-3.6 -4.5 93 -8 -8 1016.0 986.8
В 2 4000 м дымка {туман} [диам. гололёда 11 мм] 10/10 600 м
[Sc]
-4.3 -5.3 93 -9 -9 1017.9 988.6 -0.9
В 2 4000 м слаб. снег [диам. гололёда 11 мм] 10/10 600 м
[Sc]
-5.0 -6.1 92 -9 -9 1019.8 990.3
В 3 10 км {снег} [диам. гололёда 11 мм] 10/10 600 м
[Sc]
-5.5 -6.6 92 -11 -11 1021.2 991.6
В 2 10 км {снег} [диам. гололёда 11 мм] 10/10 600 м
[Sc]
-5.5 -6.7 91 -10 -10 1022.7 993.1
СВ 3 10 км [диам. гололёда 11 мм] 10/10 600 м
[Sc]
-5.6 -6.8 91 -11 -11 1024.0 994.3 -5.6 0.0 11
СВ 2 10 км {снег} [диам. гололёда 11 мм] 10/10 600 м
[Sc]
-5.3 -6.4 92 -10 -10 1025.8 996.1 -5.8
4000 м дымка [диам. гололёда 11 мм] 10/10 600 м
[Sc]
-3.3 -4.5 91 1027.0 997.5
4000 м дымка {ливн. снег} [диам. гололёда 11 мм] 10/8 600 м
[Cb cap Ac As]
-4.2 -5.3 92 1028.3 998.7
4000 м слаб. снег 10/10 600 м
[Sc]
-4.4 -5.5 92 1029.8 1000.1 -2.7 1
штиль 0 4000 м слаб. снег [диам. гололёда 11 мм] 10/10 600 м
[Sc]
-4.1 -5.1 93 -5 -5 1030.3 1000.6
4000 м дымка {снег} [диам. гололёда 11 мм] 10/10 600 м
[Sc]
-3.3 -4.2 93 1031.1 1001.5
500 м туман, небо не видно {снег} [диам. гололёда 11 мм] ?/? -2.5 -3.3 94 1031.5 1001.9
500 м туман, небо не видно [диам. гололёда 11 мм] ?/? -1.7 -2.3 96 1031.9 1002.4 -4.4 0.6 13
200 м туман, небо не видно [диам. гололёда 11 мм] ?/? -0.7 -1.3 96 1032.5 1003.1
500 м туман, небо не видно {ливн. снег} [диам. гололёда 11 мм] ?/? +0.2 -0.4 96 1033.0 1003.7
200 м слаб. снег {ливн. снег} туман ?/? -0.1 -0.6 96 1033.6 1004.3
500 м туман, небо не видно {снег} ?/? -1.8 -2.3 96 1034.8 1005.2
4000 м дымка {туман} 10/10 600 м
[Sc]
-3.4 -4.2 94 1035.6 1005.8
4000 м дымка {туман} 10/10 600 м
[Sc]
-4.6 -5.6 93 1036.5 1006.5
10 км {снег} 10/10 600 м
[Sc]
-6.2 -7.4 91 1037.3 1007.2 -6.2 0.2 14
10 км {снег} 3/1 1000 м
[Sc Ci fib]
-7.6 -8.9 90 1038.4 1008.1 -7.6
10 км 10/4 1000 м
[Sc Ac trans Cs]
-5.1 -7.0 86 1038.5 1008.5
10 км 10/10 600 м
[Sc]
-7.3 -8.7 90 1039.2 1008.9
10 км 10/10 600 м
[Sc]
-7.4 -8.8 90 1039.7 1009.4 -4.5
10 км 10/10 600 м
[Sc]
-8.8 -10.5 87 1040.4 1009.9
10 км 10/10 600 м
[Sc]
-8.0 -9.4 90 1040.9 1010.4
10 км ясно -11.0 -12.6 88 1042.5 1011.7 -11.0 14
10 км ясно -10.2 -12.3 85 1044.5 1013.7
штиль 0 4000 м дымка 10/10 600 м
[Sc]
-10.3 -11.8 89 -11 -11 1044.6 1013.8
4000 м дымка 10/10 600 м
[Sc]
-8.7 -10.0 90 1045.1 1014.5 -8.6
4000 м дымка 10/10 600 м
[Sc]
-9.2 -10.6 90 1045.7 1015.0
4000 м дымка 10/10 600 м
[Sc]
-8.3 -9.7 90 1046.1 1015.5
4000 м дымка 10/10 600 м
[Sc]
-8.2 -9.7 89 1046.2 1015.6
4000 м дымка 10/10 600 м
[Sc]
-8.9 -10.3 90 1046.2 1015.5 -9.8 14
500 м туман, небо не видно ?/? -9.4 -10.9 89 1046.9 1016.2
4000 м дымка {ливн. снег, туман} 10/10 600 м
[Sc]
-8.5 -10.2 87 1046.8 1016.2
10 км {ливн. снег, туман} 10/10 600 м
[Sc]
-9.6 -11.3 87 1046.8 1016.0
Местоположение метеостанции Дрожжаное (Татарстан, Россия): широта 54.72 долгота 47.57 высота над уровнем моря 231 м.
В архиве по умолчанию представлена погода в Дрожжаном за последнюю неделю. Архивные данные за месяц целиком и за предыдущие месяцы, начиная с января 2011 года, Вы можете получить, выбрав интересующий диапазон дат из раскрывающегося списка и нажав кнопку "Найти!".
*Определитесь, кто Вы:
Внимание! Время в таблицах - всемирное. Для получения местного времени необходимо прибавить поправку, которая равна 3 ч.
Смотрите также архив погоды в соседних городах и на ближайших метеорологических станциях:
Партнеры нашего сайта:      
Пояснения к столбцам:
  • Ветер - указаны скорость ветра в м/с - средняя за 10 мин, порывы в срок и между сроками (в фигурных скобках) и направление, откуда дует ветер: С - северный,
  • СВ - северо-восточный, В - восточный, ЮВ - юго-восточный, Ю - южный, ЮЗ - юго-западный, З - западный, СЗ - северо-западный.
  • Видимость - горизонтальная дальность видимости в метрах или километрах. При видимости от 1 до 10 км при отсутствии осадков обычно наблюдается дымка, при ухудшении видимости до 1 км и менее - туман. В сухую погоду видимость может ухудшаться дымом, пылью или мглою.
  • Явления - указаны атмосферные явления, наблюдавшиеся в срок или в последний час перед сроком; фигурными скобками обозначены явления, наблюдавшиеся между сроками (за 1-3 часа до срока); квадратными скобками обозначены град или гололедные отложения с указанием их диаметра в мм.
  • Облачность - указаны через наклонную черту общая и нижняя облачность в баллах и высота нижней границы облаков в метрах; квадратными скобками обозначены формы облаков: Ci - перистые, Cs - перисто-слоистые, Cc - перисто-кучевые, Ac - высококучевые, As - высокослоистые, Sc - слоисто-кучевые, Ns - слоисто-дождевые, Cu - кучевые, Cb - кучево-дождевые. Подробнее классификацию облаков см. в Атласе облаков (PDF).
  • T - Температура воздуха - температура, измеренная на высоте 2 м над землей.
  • Td - Температура точки росы - температура, при понижении до которой содержащийся в воздухе водяной пар достигнет насыщения.
  • f - Относительная влажность воздуха - влажноcть воздуха, измеренная на высоте 2 м над землей.
  • Te - Эффективная температура - температура, которую ощущает одетый по сезону человек в тени. Характеристика душности погоды. При расчете учитывается влияние влажности воздуха и скорости ветра на теплоощущения человека.
  • Tes - Эффективная температура на солнце - температура, которую ощущает человек, с поправкой на солнечный нагрев. Характеристика знойности погоды. Зависит от высоты солнца над горизонтом, облачности и скорости ветра. Ночью, в пасмурную погоду, а также при ветре 12 м/с и более поправка равна нулю.
  • P - Атмосферное давление - приведенное к уровню моря атмосферное давление.
  • Po - Атмосферное давление - измеренное на уровне метеостанции атмосферное давление.
  • Tmin - Минимальная температура - минимум температуры воздуха на высоте 2 м над землей.
  • Tmax - Максимальная температура - максимум температуры воздуха на высоте 2 м над землей.
  • R - Количество осадков - Количество выпавших осадков за период времени, мм. При наведении курсора мыши на число - период времени, за который выпало указанное количество осадков.
  • R24 - Количество осадков - Количество выпавших осадков за 24 часа, мм.
  • S - Снежный покров - Высота снежного покрова, см. При наведении курсора мыши на число - состояние снежного покрова и степень покрытия местности в баллах.